Location: *
(45.9500°N, 9.0833°E)
Time: 14:33:38
(UTC+00:00)

Cosmos 1933 Rocket - Pass Details

Date: 03 March 2021
Orbit: 607 x 630 km, 82.5° (Epoch: 19 April)

Event Time Altitude Azimuth Distance (km) Brightness Sun altitude
Rises 18:55:56 0° 198° (SSW) 2,858 7.1 -18.6°
Reaches altitude 10° 18:58:10 10° 202° (SSW) 1,962 6.3 -19.0°
Maximum altitude 19:02:26 57° 281° (W) 726 4.2 -19.7°
Drops below altitude 10° 19:06:47 10° 1° (N) 1,991 6.3 -20.5°
Sets 19:09:04 0° 6° (N) 2,906 7.1 -20.8°
